Date,TemperatureHighF,TemperatureAvgF,TemperatureLowF,DewpointHighF,DewpointAvgF,DewpointLowF,HumidityHigh,HumidityAvg,HumidityLow,PressureMaxIn,PressureMinIn,WindSpeedMaxMPH,WindSpeedAvgMPH,GustSpeedMaxMPH,PrecipitationSumIn
2012-1-1,50.9,44.2,38.4,43.3,38.9,31.1,94,82,67,30.11,29.68,17,5,33,0.06
2012-1-2,38.9,31.7,26.1,30.9,22.4,17.1,84,69,51,29.87,29.76,16,9,35,0.00
2012-1-3,26.1,20.0,8.9,21.7,8.6,0.1,86,62,41,30.27,29.87,14,8,29,0.00
2012-1-4,23.0,15.7,5.5,13.4,7.2,-1.1,81,69,61,30.30,30.00,8,2,16,0.00
2012-1-5,36.7,29.7,21.0,26.3,22.1,13.4,80,73,61,30.01,29.93,9,3,21,0.00
2012-1-6,55.2,44.7,31.1,33.8,29.3,23.6,76,55,44,29.93,29.75,10,4,22,0.00
2012-1-7,57.3,48.6,38.3,42.1,32.5,26.5,66,54,46,30.05,29.74,11,5,24,0.00
2012-1-8,41.7,35.5,27.5,29.9,25.3,18.5,78,66,53,30.35,30.05,9,5,18,0.00
2012-1-9,40.7,32.4,26.1,25.3,21.5,18.5,80,65,43,30.35,29.99,7,2,16,0.00
2012-1-10,42.7,34.9,26.8,31.6,28.0,24.4,93,76,63,30.04,29.91,10,3,19,0.00
2012-1-11,45.7,36.8,25.9,36.7,30.2,22.8,96,78,59,30.06,29.68,10,4,21,0.15
2012-1-12,44.6,42.7,37.7,44.1,41.7,36.5,98,96,93,29.68,29.35,11,4,28,0.48
2012-1-13,46.5,28.5,21.8,45.5,23.9,13.9,97,83,68,29.88,29.23,19,12,35,0.23
2012-1-14,29.9,23.9,20.5,19.2,17.5,15.8,92,77,62,30.14,29.88,13,7,23,0.01
2012-1-15,23.4,16.0,8.7,18.5,6.9,3.0,85,67,52,30.62,30.14,8,4,17,0.00
2012-1-16,33.7,22.9,8.4,28.1,14.9,4.7,86,72,55,30.61,30.11,10,4,24,0.00
2012-1-17,50.4,40.6,33.6,45.1,37.3,28.1,97,88,69,30.11,29.57,17,4,32,0.10
2012-1-18,46.7,30.8,19.5,37.5,19.3,11.5,76,62,47,30.19,29.66,19,8,37,0.00
2012-1-19,28.9,23.3,14.8,25.1,15.3,10.0,92,72,54,30.22,29.94,9,4,23,0.00
2012-1-20,27.2,21.9,15.7,25.4,12.5,8.0,93,67,54,30.32,29.97,9,3,22,0.00
2012-1-21,25.7,22.7,20.4,22.6,19.9,15.4,94,89,71,30.38,30.05,6,2,15,0.00
2012-1-22,30.7,23.0,12.4,28.7,18.3,10.5,93,83,63,30.53,30.36,9,2,17,0.10
2012-1-23,43.4,38.5,30.7,42.5,37.4,28.7,98,96,92,30.38,29.86,11,5,24,0.34
2012-1-24,45.8,39.6,35.2,38.9,35.2,28.9,98,85,67,30.23,29.90,15,6,30,0.01
2012-1-25,36.2,33.5,31.0,29.5,27.9,26.7,88,80,74,30.37,30.21,10,3,20,0.00
2012-1-26,41.4,34.1,30.2,40.8,32.6,27.8,98,94,87,30.24,29.75,9,2,19,0.35
2012-1-27,52.7,44.5,36.4,52.2,41.3,29.5,99,89,74,29.94,29.42,18,8,39,0.52
2012-1-28,44.7,37.4,31.8,34.8,27.3,13.9,83,67,44,30.11,29.88,15,6,32,0.00
2012-1-29,40.1,33.8,27.3,30.0,19.1,13.4,89,55,43,30.20,30.00,14,6,28,0.00
2012-1-30,35.7,31.7,26.2,24.3,18.3,14.5,76,58,44,30.34,30.07,13,6,26,0.00
2012-1-31,58.2,45.3,30.4,34.6,27.3,17.9,65,50,39,30.19,29.99,7,2,17,0.00
2012-2-1,57.2,52.3,44.1,46.6,40.4,30.2,77,65,38,30.03,29.91,16,6,31,0.02
2012-2-2,44.1,36.4,32.2,36.3,31.2,23.5,91,81,68,30.35,30.00,12,4,21,0.00
2012-2-3,42.1,33.6,26.9,26.9,23.8,20.1,78,67,53,30.52,30.34,11,3,20,0.00
2012-2-4,39.4,33.7,28.1,27.8,25.8,23.3,86,73,60,30.37,30.14,3,1,7,0.00
2012-2-5,39.6,32.1,28.0,25.8,23.6,20.9,85,71,56,30.22,30.13,8,2,16,0.00
2012-2-6,49.9,38.3,28.4,30.8,26.1,21.5,78,62,43,30.22,30.02,10,5,18,0.00
2012-2-7,42.3,38.6,33.7,31.6,29.0,24.8,78,68,56,30.27,30.03,10,5,14,0.00
2012-2-8,33.5,29.5,28.0,28.3,25.9,22.1,96,86,69,30.30,30.14,3,1,4,0.03
2012-2-9,39.3,30.0,21.5,27.0,23.5,18.3,98,77,57,30.25,30.15,7,3,14,0.19
2012-2-10,37.4,32.0,25.6,28.4,23.1,20.1,88,70,58,30.20,29.91,7,2,14,0.00
2012-2-11,33.9,28.6,15.6,30.7,26.0,9.4,96,90,76,29.92,29.64,16,4,33,0.01
2012-2-12,27.2,20.9,11.8,18.7,13.4,6.0,81,73,62,30.08,29.91,16,10,33,0.00
2012-2-13,36.5,23.8,21.3,21.3,-1.1,-99.9,78,54,43,30.14,30.05,11,6,21,0.01
2012-2-14,43.0,35.8,30.5,33.2,25.3,15.7,96,67,50,30.11,29.97,6,1,15,0.03
2012-2-15,43.2,35.7,30.3,36.1,32.2,27.4,98,88,68,30.31,30.05,9,3,18,0.01
2012-2-16,40.0,35.4,29.6,38.7,33.7,27.1,96,94,87,30.31,30.00,10,3,20,0.16
2012-2-17,45.4,39.8,33.4,39.0,30.9,23.7,98,72,49,30.09,29.99,10,5,21,0.01
2012-2-18,46.4,36.1,29.7,37.3,26.3,20.8,90,68,49,30.11,29.88,10,4,23,0.02
2012-2-19,41.4,33.8,28.8,27.1,24.1,21.1,81,68,51,30.14,29.98,7,4,16,0.00
2012-2-20,40.9,32.1,26.3,23.3,20.0,15.3,77,61,44,30.37,30.05,10,5,18,0.00
2012-2-21,44.2,35.3,24.8,33.0,22.7,15.2,74,60,47,30.37,29.84,12,4,32,0.00
2012-2-22,55.5,45.6,38.7,38.7,34.6,31.4,85,67,43,29.84,29.41,10,5,28,0.04
2012-2-23,52.7,46.8,39.8,39.4,33.4,26.4,88,61,39,29.72,29.38,13,4,27,0.04
2012-2-24,42.2,38.6,36.6,39.1,35.6,27.4,97,90,65,29.70,29.39,20,6,37,0.26
2012-2-25,36.7,33.4,28.5,28.3,24.5,17.4,81,70,59,30.18,29.53,19,12,38,0.00
2012-2-26,40.3,32.6,27.2,23.6,20.5,15.2,72,61,48,30.46,30.17,12,4,27,0.00
2012-2-27,57.7,43.9,31.4,33.5,27.5,21.9,72,54,36,30.40,30.09,13,5,28,0.00
2012-2-28,46.2,37.8,30.5,25.4,23.2,21.3,71,56,40,30.45,30.29,11,4,25,0.00
2012-2-29,39.8,36.9,32.1,39.2,32.0,23.0,98,83,59,30.35,29.65,9,4,17,0.37
2012-3-1,43.2,39.4,37.4,42.2,37.0,32.3,99,91,80,29.98,29.60,10,4,21,0.09
2012-3-2,44.9,38.9,32.3,39.6,34.9,30.3,95,86,69,30.04,29.66,12,5,26,0.22
2012-3-3,54.1,44.5,34.0,43.7,33.8,20.8,98,70,29,29.74,29.50,21,8,37,0.01
2012-3-4,39.1,33.3,28.7,27.6,23.1,16.8,85,66,51,29.83,29.64,12,6,25,0.00
2012-3-5,38.7,30.7,24.0,20.7,16.0,7.2,77,55,40,30.45,29.83,11,5,22,0.00
2012-3-6,42.7,32.1,20.9,24.9,17.3,9.4,70,55,39,30.65,30.45,7,3,18,0.00
2012-3-7,63.1,49.2,33.1,43.1,30.9,24.9,75,52,31,30.53,30.25,9,4,27,0.00
2012-3-8,66.5,56.6,42.3,53.9,47.9,39.5,94,74,55,30.25,29.84,16,6,33,0.27
2012-3-9,44.9,37.6,30.2,39.8,26.9,17.5,91,66,49,30.35,29.97,17,8,34,0.00
2012-3-10,38.9,30.9,22.8,17.5,14.0,10.2,65,50,35,30.57,30.35,12,5,27,0.00
2012-3-11,61.7,47.7,32.5,32.2,24.4,13.2,52,40,29,30.53,30.34,7,3,16,0.00
2012-3-12,69.5,55.5,39.9,42.4,35.3,30.2,70,48,27,30.35,30.08,7,2,18,0.00
2012-3-13,73.7,63.1,53.5,56.8,48.8,39.4,72,60,47,30.08,29.91,12,4,24,0.00
2012-3-14,70.5,60.4,50.6,45.4,36.9,28.2,62,43,25,30.17,30.00,10,4,18,0.00
2012-3-15,74.5,58.3,43.4,48.3,42.3,34.8,81,57,35,30.21,30.09,9,2,20,0.00
2012-3-16,69.1,54.0,44.6,55.5,48.3,42.4,96,82,61,30.20,30.07,7,2,14,0.00
2012-3-17,75.2,60.3,48.8,54.9,51.0,47.7,98,75,42,30.30,30.18,8,2,16,0.00
2012-3-18,72.3,59.1,51.5,55.4,52.3,49.5,94,80,53,30.33,30.16,8,3,16,0.00
2012-3-19,73.3,61.9,52.8,60.4,55.6,51.2,96,81,59,30.20,30.13,6,1,14,0.00
2012-3-20,71.8,62.7,58.3,60.4,58.4,56.2,98,87,65,30.28,30.19,7,1,14,0.11
2012-3-21,67.5,60.4,56.1,58.4,56.3,54.7,97,87,70,30.34,30.24,5,1,11,0.00
2012-3-22,70.7,62.7,57.4,61.1,57.7,54.8,95,84,67,30.28,30.09,4,0,12,0.00
2012-3-23,78.9,65.1,51.0,59.9,55.8,49.9,99,75,49,30.12,29.96,6,1,15,0.00
2012-3-24,62.6,55.3,47.0,54.4,46.1,36.9,89,71,58,30.00,29.91,10,4,24,0.07
2012-3-25,61.4,50.7,43.4,53.2,47.0,41.0,98,88,73,29.93,29.76,8,2,17,0.04
2012-3-26,53.2,43.3,30.8,49.9,28.3,12.4,91,57,32,30.23,29.78,18,10,36,0.00
2012-3-27,50.0,37.2,26.4,17.4,13.2,9.0,51,38,22,30.39,30.14,12,5,21,0.00
2012-3-28,71.0,55.4,42.6,54.4,36.0,16.2,80,48,34,30.14,29.55,14,5,31,0.02
2012-3-29,61.1,46.2,37.6,43.9,35.3,28.7,73,66,53,30.07,29.64,14,9,31,0.00
2012-3-30,58.4,43.8,31.2,42.4,29.7,23.0,94,59,30,30.13,29.83,9,3,20,0.27
2012-3-31,44.4,42.3,39.8,41.6,40.7,39.0,98,94,88,29.93,29.78,7,2,18,0.14
2012-4-1,51.7,44.9,40.6,45.9,42.6,39.8,98,92,71,29.92,29.63,9,1,19,0.24
2012-4-2,56.0,45.0,36.8,43.1,29.4,17.3,97,59,29,29.96,29.65,15,9,32,0.01
2012-4-3,65.0,49.9,35.9,28.3,23.8,20.2,60,38,20,30.02,29.78,9,4,17,0.00
2012-4-4,68.9,55.7,43.4,36.6,29.7,21.7,53,37,24,29.78,29.56,15,6,32,0.00
2012-4-5,55.0,44.0,34.6,32.7,28.9,25.3,75,56,38,30.01,29.78,10,5,19,0.00
2012-4-6,55.7,42.0,28.9,29.3,22.9,15.1,77,50,24,30.13,29.99,14,6,30,0.00
2012-4-7,60.1,46.2,33.2,25.5,21.0,17.3,65,39,21,30.20,30.05,15,6,28,0.00
2012-4-8,67.3,52.1,40.3,37.2,26.7,19.1,60,39,21,30.10,29.74,16,7,32,0.00
2012-4-9,59.9,50.8,44.4,37.2,29.3,23.8,71,44,29,29.83,29.68,17,10,34,0.00
2012-4-10,54.9,45.6,37.8,37.6,33.5,27.5,82,65,36,29.86,29.70,15,7,29,0.00
2012-4-11,48.3,40.3,35.0,37.3,33.7,29.5,87,77,60,30.03,29.85,11,5,25,0.01
2012-4-12,54.1,45.5,38.3,39.2,33.8,29.1,86,66,42,30.19,30.02,10,5,20,0.00
2012-4-13,62.5,49.1,34.4,36.7,31.0,27.7,78,52,30,30.29,30.17,10,2,17,0.00
2012-4-14,69.3,56.1,41.4,50.1,35.4,28.2,92,48,28,30.24,30.03,10,2,22,0.06
2012-4-15,76.5,62.4,51.7,61.8,56.0,49.9,98,81,58,30.05,29.94,9,2,18,0.03
2012-4-16,86.2,74.8,62.1,59.7,56.8,53.7,79,55,35,30.00,29.83,10,3,23,0.00
2012-4-17,74.2,63.5,53.4,59.4,42.4,33.8,66,47,27,30.22,29.90,11,6,24,0.00
2012-4-18,56.4,48.7,41.8,38.9,34.9,32.6,76,59,45,30.30,30.11,6,2,12,0.00
2012-4-19,72.5,56.6,42.5,50.4,44.4,37.3,97,68,37,30.13,29.96,5,1,13,0.00
2012-4-20,74.0,62.7,50.3,52.7,48.4,43.8,80,61,39,30.01,29.79,9,3,21,0.00
2012-4-21,74.9,59.0,43.5,59.6,53.2,42.5,97,82,55,29.81,29.60,12,3,26,0.83
2012-4-22,45.5,42.1,38.2,43.2,40.7,37.6,98,94,86,29.83,29.49,8,4,16,0.60
2012-4-23,39.8,37.1,34.7,38.3,36.3,33.7,98,97,92,29.49,29.28,9,5,21,0.44
2012-4-24,52.4,42.5,35.3,39.1,34.3,30.1,97,75,45,29.74,29.39,11,5,26,0.01
2012-4-25,60.9,47.2,33.8,40.1,33.3,27.9,96,63,33,29.91,29.72,9,2,18,0.00
2012-4-26,58.1,50.8,43.1,54.2,41.9,28.1,96,73,50,29.91,29.58,10,3,22,0.05
2012-4-27,50.2,43.8,38.6,46.8,32.4,26.3,88,65,45,30.19,29.72,13,6,27,0.00
2012-4-28,52.2,43.3,31.9,33.2,28.3,23.9,75,56,41,30.31,30.14,5,2,12,0.00
2012-4-29,64.5,49.0,34.9,33.9,27.1,19.7,84,48,20,30.29,30.13,11,4,24,0.00
2012-4-30,64.5,50.3,34.4,43.9,30.8,20.0,71,49,28,30.35,30.10,8,3,20,0.00
2012-5-1,75.9,61.9,50.3,61.9,54.3,44.1,97,78,55,30.10,29.96,10,3,21,0.07
2012-5-2,62.2,57.3,52.8,57.3,54.7,51.3,97,91,82,30.17,29.98,7,3,15,0.20
2012-5-3,82.4,63.1,52.8,69.9,59.7,51.9,99,90,62,30.14,29.95,9,1,22,0.36
2012-5-4,81.8,67.7,60.0,69.8,63.7,59.2,99,89,62,30.00,29.84,11,2,20,0.16
2012-5-5,74.8,64.9,59.7,64.0,59.8,52.8,99,85,62,30.01,29.88,5,1,14,0.01
2012-5-6,70.4,60.6,53.6,61.0,56.2,51.3,96,86,70,30.06,29.99,6,1,12,0.00
2012-5-7,58.2,55.8,53.5,56.2,53.6,50.2,97,92,82,30.09,29.98,8,3,20,0.10
2012-5-8,62.2,58.4,54.4,62.0,55.8,46.3,99,92,71,29.98,29.78,10,3,23,0.81
2012-5-9,71.0,62.5,54.9,62.0,56.1,47.4,99,81,46,29.78,29.64,7,2,15,0.14
2012-5-10,60.1,53.8,48.4,48.1,42.9,36.5,88,68,46,29.90,29.58,12,5,30,0.00
2012-5-11,69.3,58.9,45.6,42.6,38.3,34.6,73,49,30,30.15,29.90,11,5,24,0.00
2012-5-12,77.7,63.8,48.6,52.7,44.9,34.3,79,51,35,30.27,30.14,6,2,14,0.00
2012-5-13,77.1,65.4,56.1,57.2,50.8,45.2,83,60,41,30.18,30.08,6,1,18,0.00
2012-5-14,62.6,58.8,54.4,61.1,57.8,53.5,99,96,83,30.13,30.03,3,1,12,0.64
2012-5-15,72.8,64.0,59.3,67.7,62.2,58.8,99,87,78,30.04,29.90,5,1,14,0.63
2012-5-16,79.9,66.5,58.0,64.4,59.6,54.7,99,81,43,29.97,29.80,11,2,21,0.09
2012-5-17,69.9,57.1,43.1,58.3,43.8,38.0,97,65,36,30.16,29.96,8,2,19,0.01
2012-5-18,76.5,60.7,42.8,52.1,45.3,37.4,92,60,33,30.23,30.11,4,1,10,0.00
2012-5-19,82.3,67.0,48.8,60.8,51.1,44.4,88,59,38,30.19,30.08,5,1,12,0.00
2012-5-20,83.5,70.1,54.9,62.9,52.8,42.4,90,57,38,30.21,30.12,8,2,17,0.00
2012-5-21,68.9,63.0,57.7,63.7,58.5,46.9,97,86,53,30.15,29.95,7,1,15,0.05
2012-5-22,77.0,66.9,60.6,66.3,62.2,59.3,97,86,65,29.95,29.78,4,0,10,0.00
2012-5-23,76.4,67.3,62.3,67.9,64.4,61.6,99,91,69,29.99,29.84,5,1,14,0.00
2012-5-24,77.8,68.3,62.1,68.1,64.0,61.5,99,87,65,30.10,29.98,6,2,16,0.00
2012-5-25,81.8,71.6,64.7,71.2,66.3,62.1,94,84,66,30.13,30.06,7,2,17,0.00
2012-5-26,86.2,73.8,66.8,75.8,69.2,65.6,98,86,66,30.12,30.04,8,1,17,0.00
2012-5-27,83.1,70.3,64.9,76.3,65.2,-99.9,99,89,75,30.13,29.99,7,1,19,0.69
2012-5-28,86.0,40.3,64.3,76.4,-12.3,-99.9,99,40,69,30.03,29.88,5,1,13,0.01
2012-5-29,87.0,74.4,64.2,75.8,69.9,62.6,99,87,60,29.88,29.67,17,2,37,0.23
2012-5-30,80.1,70.0,62.2,68.8,62.5,55.3,99,79,47,29.80,29.69,8,2,17,0.33
2012-5-31,74.4,65.5,56.0,59.3,55.1,51.7,92,70,50,29.93,29.75,5,1,13,0.00
2012-6-1,69.5,61.7,53.8,61.9,55.9,49.3,97,82,68,29.93,29.66,16,5,33,1.07
2012-6-2,68.9,59.9,51.5,57.9,52.6,48.1,98,78,52,29.82,29.69,10,3,24,0.03
2012-6-3,69.7,59.0,50.9,58.0,52.9,47.5,96,81,61,29.81,29.67,10,3,21,0.12
2012-6-4,67.8,57.1,51.9,58.1,53.9,51.2,98,90,64,29.82,29.63,10,2,20,0.20
2012-6-5,64.3,55.7,47.5,54.0,51.0,46.7,98,85,62,29.97,29.82,4,1,11,0.01
2012-6-6,72.2,60.5,47.2,57.5,52.2,46.0,99,76,49,30.02,29.93,2,0,9,0.00
2012-6-7,74.2,61.4,52.0,61.0,55.4,50.6,97,82,53,30.02,29.93,8,2,18,0.18
2012-6-8,78.9,65.2,52.4,62.5,56.2,50.8,97,75,42,30.01,29.88,9,2,14,0.01
2012-6-9,78.5,69.0,59.3,65.9,58.8,50.0,84,70,55,29.98,29.91,5,1,12,0.00
2012-6-10,88.1,75.1,61.6,69.0,63.6,59.8,96,70,45,30.10,29.98,4,1,12,0.00
2012-6-11,82.3,73.8,64.5,71.2,66.5,61.0,92,78,65,30.14,30.04,9,3,26,0.00
2012-6-12,69.6,67.3,66.0,68.4,65.8,63.8,99,95,87,30.06,29.84,8,3,18,0.55
2012-6-13,71.9,65.0,56.7,66.6,57.7,52.6,99,78,58,30.13,29.88,11,5,20,0.01
2012-6-14,76.9,65.5,53.1,64.2,57.3,51.0,95,76,54,30.23,30.12,4,1,12,0.00
2012-6-15,79.8,68.1,58.4,66.7,60.8,56.5,98,79,54,30.31,30.22,2,0,7,0.00
2012-6-16,79.4,68.7,59.4,63.4,57.6,50.6,84,68,54,30.34,30.17,5,1,12,0.00
2012-6-17,74.8,65.8,57.5,62.0,57.1,52.1,85,74,59,30.20,30.02,7,3,18,0.00
2012-6-18,64.9,61.7,58.2,60.3,58.0,55.3,97,88,80,30.14,30.03,6,3,16,0.08
2012-6-19,82.5,69.9,61.8,73.8,66.4,59.6,98,89,73,30.16,30.06,4,1,11,0.06
2012-6-20,92.1,73.8,69.5,75.9,55.9,-99.9,98,68,54,30.13,29.98,5,2,12,0.00
2012-6-21,91.3,81.0,69.9,75.6,71.7,67.7,94,75,53,29.99,29.79,6,2,16,0.00
2012-6-22,86.8,74.0,66.4,75.0,68.2,58.7,97,83,62,29.87,29.78,13,1,33,0.21
2012-6-23,81.4,70.6,60.0,65.7,59.0,51.1,97,69,41,30.01,29.87,7,2,17,0.00
2012-6-24,81.1,70.8,57.8,64.5,58.5,53.1,90,66,48,30.03,29.88,6,1,13,0.00
2012-6-25,75.1,65.7,57.2,66.4,56.7,44.8,98,75,46,29.88,29.72,10,3,21,0.20
2012-6-26,74.8,63.3,52.4,55.8,50.0,47.3,85,64,40,29.85,29.77,12,5,32,0.00
2012-6-27,80.2,68.1,53.3,58.6,54.1,48.3,90,63,40,29.89,29.80,10,4,28,0.00
2012-6-28,66.3,64.7,63.2,55.3,54.8,53.8,72,70,67,29.89,29.88,2,0,6,0.00
2012-6-30,83.3,78.1,73.1,70.8,67.0,63.3,79,69,61,29.82,29.76,6,3,13,0.00
2012-7-1,91.2,78.5,65.8,73.5,65.2,60.0,90,66,39,29.90,29.78,8,2,20,0.00
2012-7-2,86.5,74.8,63.1,63.7,59.8,56.8,88,62,38,29.97,29.81,8,2,19,0.00
2012-7-3,89.6,78.7,65.0,69.2,63.9,56.8,81,62,41,29.97,29.83,7,2,15,0.00
2012-7-4,90.8,78.3,67.0,74.3,70.0,65.7,98,77,55,29.89,29.75,8,3,18,0.06
2012-7-5,91.8,81.0,72.7,74.4,69.4,61.9,93,70,45,29.88,29.78,7,2,18,0.00
2012-7-6,94.7,80.5,64.1,72.3,66.9,60.6,90,65,46,29.95,29.84,5,1,15,0.00
2012-7-7,97.0,80.0,70.4,74.9,70.9,68.0,95,76,46,29.90,29.76,16,1,33,0.01
2012-7-8,88.5,77.2,70.8,71.7,68.3,61.2,99,76,46,29.91,29.83,5,1,12,0.10
2012-7-9,85.8,74.9,64.5,64.9,59.7,51.8,87,62,33,29.99,29.88,6,2,15,0.00
2012-7-10,86.1,73.8,59.0,62.5,58.5,53.1,92,61,39,30.08,29.97,4,0,11,0.00
2012-7-11,86.0,73.8,61.6,68.0,64.4,60.3,98,74,47,30.15,30.07,6,1,14,0.00
2012-7-12,90.2,76.2,64.1,66.8,62.6,58.1,84,65,39,30.20,30.10,6,1,14,0.00
2012-7-13,87.3,75.7,66.7,67.3,63.6,60.5,91,68,44,30.20,30.16,6,1,13,0.01
2012-7-14,79.8,72.3,65.3,68.6,65.9,62.7,97,81,64,30.24,30.11,4,1,13,0.01
2012-7-15,87.8,74.6,67.8,74.1,69.7,67.0,98,86,59,30.14,29.93,12,2,33,0.37
2012-7-16,89.5,58.5,67.4,73.7,24.7,-99.9,99,54,51,29.98,29.83,8,2,20,0.00
2012-7-17,95.2,81.7,66.1,73.1,68.6,63.8,95,67,45,29.88,29.75,9,3,19,0.00
2012-7-18,94.3,81.2,73.9,76.9,72.7,69.7,98,77,55,29.91,29.77,10,2,22,0.05
2012-7-19,81.0,73.0,68.5,73.2,69.2,65.1,99,89,60,29.98,29.89,5,0,11,0.05
2012-7-20,68.4,63.6,60.8,67.2,62.8,60.2,99,97,94,30.06,29.88,5,1,13,0.73
2012-7-21,75.3,66.5,58.5,65.6,61.5,57.9,99,85,63,30.14,30.06,3,0,9,0.19
2012-7-22,81.7,71.2,61.4,67.8,64.5,60.5,98,81,57,30.17,30.08,4,1,13,0.00
2012-7-23,88.9,77.6,67.1,73.7,69.9,65.5,97,79,58,30.11,29.83,9,2,20,0.00
2012-7-24,90.7,79.9,70.4,75.0,68.3,58.9,92,70,43,29.83,29.64,10,5,23,0.00
2012-7-25,82.7,72.1,60.4,62.2,58.3,52.8,81,63,47,29.95,29.80,6,2,13,0.00
2012-7-26,89.7,73.0,64.6,78.0,67.5,58.2,98,84,64,29.81,29.61,15,2,33,0.95
2012-7-27,86.7,73.1,65.8,75.1,69.9,65.0,99,91,65,29.91,29.70,9,2,20,0.22
2012-7-28,84.3,71.4,65.2,75.0,68.3,64.5,99,90,66,29.95,29.86,8,1,17,0.02
2012-7-29,84.1,73.0,64.7,70.7,67.5,63.9,99,84,60,30.03,29.94,4,1,12,0.01
2012-7-30,81.1,72.8,65.0,71.7,67.9,64.1,99,85,64,30.09,30.01,6,1,15,0.02
2012-7-31,81.2,72.7,66.2,70.2,66.9,63.1,95,83,65,30.05,29.87,6,2,19,0.00
2012-8-1,81.6,70.6,61.6,72.0,66.8,60.8,99,88,69,29.93,29.82,5,1,12,0.23
2012-8-2,86.5,75.1,64.4,73.4,66.7,62.8,99,78,50,29.92,29.86,6,1,13,0.00
2012-8-3,89.2,77.3,66.7,76.0,70.1,63.3,95,79,53,30.07,29.91,2,0,9,0.00
2012-8-4,87.0,77.1,69.8,76.8,71.6,68.3,97,84,65,30.15,30.07,10,2,22,0.00
2012-8-5,87.0,76.6,70.7,76.8,72.8,69.0,98,88,71,30.12,29.95,13,2,31,0.41
2012-8-6,82.0,74.4,65.7,72.9,66.8,59.3,97,79,53,30.08,29.98,6,2,15,0.00
2012-8-7,83.0,70.9,58.3,68.1,62.8,57.1,98,78,52,30.03,29.94,5,1,13,0.00
2012-8-8,87.7,74.9,62.6,72.2,65.7,61.7,98,76,46,30.00,29.91,5,1,14,0.00
2012-8-9,89.2,75.5,65.0,74.3,69.1,61.3,98,82,55,29.94,29.81,11,2,24,0.52
2012-8-10,76.8,70.7,66.6,71.3,68.4,65.9,99,93,80,29.84,29.72,9,1,17,0.40
2012-8-11,80.7,72.0,64.9,69.7,64.9,59.3,99,80,52,29.93,29.77,8,2,19,0.02
2012-8-12,78.8,68.7,61.7,66.5,61.3,57.7,92,78,60,30.01,29.92,7,2,15,0.00
2012-8-13,82.0,69.6,59.6,65.2,60.5,57.8,96,75,47,30.06,29.96,4,0,11,0.00
2012-8-14,77.8,68.9,62.2,70.4,65.2,58.9,99,88,75,29.98,29.84,5,1,12,0.76
2012-8-15,77.2,69.0,62.6,69.7,65.8,60.4,99,90,73,29.93,29.85,4,0,11,0.00
2012-8-16,80.9,68.7,58.9,67.4,62.0,58.0,99,81,52,30.00,29.88,7,1,15,0.01
2012-8-17,79.7,69.4,59.2,69.5,64.3,58.3,97,84,67,29.91,29.80,6,1,13,0.22
2012-8-18,75.6,65.6,57.4,64.2,58.0,50.3,99,79,47,29.96,29.88,6,1,14,0.16
2012-8-19,72.2,62.0,52.6,63.1,56.8,51.7,98,84,63,30.00,29.92,2,0,8,0.00
2012-8-20,74.0,62.8,57.7,65.0,60.0,56.0,99,91,66,29.98,29.88,7,0,16,0.13
2012-8-21,78.0,66.5,59.3,65.3,60.3,57.0,99,82,52,30.11,29.98,3,0,8,0.00
2012-8-22,81.0,67.9,54.9,67.0,60.5,54.0,99,79,56,30.17,30.09,4,0,11,0.00
2012-8-23,82.8,70.4,58.2,67.6,61.3,57.3,98,76,46,30.19,30.11,4,0,11,0.00
2012-8-24,84.0,70.8,58.6,69.4,62.1,57.0,97,76,52,30.19,30.13,3,0,7,0.00
2012-8-25,80.7,70.8,62.4,68.9,63.3,59.3,96,78,53,30.25,30.17,4,1,12,0.00
2012-8-26,82.0,71.7,63.3,69.4,65.3,61.6,96,81,61,30.28,30.17,6,1,16,0.00
2012-8-27,82.3,73.3,66.6,71.9,68.2,63.6,98,85,67,30.19,29.92,4,1,15,0.10
2012-8-28,81.5,73.6,67.4,70.3,65.8,60.4,98,78,52,29.95,29.86,8,2,19,0.15
2012-8-29,76.9,66.9,56.9,61.5,57.9,54.4,96,74,50,30.05,29.94,5,1,12,0.00
2012-8-30,80.8,66.3,51.3,62.7,57.0,50.2,98,75,43,30.15,30.05,4,1,12,0.00
2012-8-31,88.2,73.3,57.7,67.0,61.2,55.6,97,69,40,30.10,29.95,8,2,17,0.00
2012-9-1,86.8,75.8,67.2,69.4,65.0,59.2,88,70,50,30.06,29.97,6,2,13,0.00
2012-9-2,73.1,67.5,61.5,71.5,64.6,55.5,97,91,62,30.07,29.99,1,0,4,0.05
2012-9-3,75.0,70.3,68.6,69.5,68.1,66.9,97,93,82,30.09,30.02,10,3,22,0.01
2012-9-4,81.3,73.3,68.6,74.6,70.9,67.2,97,93,77,30.05,29.79,5,2,19,0.13
2012-9-5,78.0,72.0,64.3,72.5,68.4,61.8,99,89,70,29.87,29.77,4,1,15,0.77
2012-9-6,83.3,70.6,60.4,73.4,66.5,59.6,99,88,68,29.93,29.85,4,1,13,0.00
2012-9-7,85.8,71.8,60.3,72.5,66.1,59.7,99,84,55,29.96,29.79,7,1,18,0.33
2012-9-8,79.1,69.0,58.8,71.7,65.4,57.4,96,89,76,29.82,29.59,11,3,31,0.08
2012-9-9,71.5,60.7,52.3,61.6,56.1,51.3,99,86,61,29.97,29.82,6,2,16,0.00
2012-9-10,68.7,58.8,50.9,55.4,50.1,43.5,98,75,48,30.19,29.97,10,3,23,0.00
2012-9-11,72.2,58.7,44.9,57.0,49.4,42.3,96,73,46,30.32,30.18,4,1,13,0.00
2012-9-12,78.8,62.9,48.2,59.1,53.3,47.1,98,73,43,30.38,30.29,3,0,10,0.00
2012-9-13,80.0,66.1,52.0,60.7,55.7,50.3,96,71,47,30.37,30.26,4,1,12,0.00
2012-9-14,78.5,66.7,53.7,61.1,57.2,51.0,94,73,49,30.28,30.09,9,1,23,0.01
2012-9-15,69.4,59.1,50.3,59.0,51.8,48.7,97,79,53,30.23,30.12,8,2,20,0.11
2012-9-16,71.3,58.4,48.2,53.5,50.1,47.0,98,76,48,30.18,30.07,6,1,15,0.00
2012-9-17,73.4,61.4,47.9,61.7,52.9,46.1,96,76,48,30.14,29.96,5,1,17,0.00
2012-9-18,69.9,65.8,58.6,68.5,64.5,57.0,98,96,87,29.96,29.51,15,4,34,1.58
2012-9-19,65.5,56.0,47.6,57.0,49.0,42.3,97,78,49,30.20,29.80,9,2,18,0.01
2012-9-20,68.9,56.0,43.8,53.6,48.2,42.2,96,77,53,30.22,30.08,6,1,15,0.00
2012-9-21,73.5,64.0,54.0,62.7,57.1,50.8,92,79,68,30.09,29.93,8,3,17,0.00
2012-9-22,77.8,66.5,57.9,65.0,59.6,50.4,93,79,61,29.93,29.74,10,4,26,0.00
2012-9-23,61.8,53.7,45.6,50.2,45.6,42.8,93,75,53,30.17,29.93,8,3,18,0.00
2012-9-24,61.6,51.1,42.2,46.4,42.8,40.6,97,75,49,30.23,30.12,8,2,17,0.00
2012-9-25,68.1,56.4,44.1,56.0,46.4,40.2,91,70,46,30.19,30.09,7,1,17,0.02
2012-9-26,68.9,62.0,57.4,63.4,59.4,54.7,98,91,81,30.11,30.03,5,1,15,0.14
2012-9-27,67.5,62.2,58.0,61.2,59.0,55.0,99,90,72,30.20,30.09,5,0,11,0.43
2012-9-28,68.9,61.7,54.5,63.7,59.0,51.3,99,91,75,30.12,29.97,7,2,16,0.44
2012-9-29,62.6,55.3,51.2,54.1,50.5,46.9,92,84,68,30.01,29.92,5,1,16,0.00
2012-9-30,62.0,52.8,46.0,52.1,48.7,45.0,98,87,65,29.93,29.83,6,1,12,0.00
2012-10-1,67.3,55.4,44.7,53.0,49.1,43.5,97,81,58,29.98,29.88,6,2,16,0.01
2012-10-2,62.4,59.6,56.6,61.8,57.5,50.4,99,93,74,30.02,29.93,4,0,11,0.49
2012-10-3,71.3,65.2,61.6,68.5,64.5,61.2,99,92,90,30.13,29.97,3,0,7,0.00
2012-10-4,71.7,65.3,58.7,68.4,63.2,54.6,99,89,72,30.16,30.08,4,1,10,0.39
2012-10-5,76.8,64.4,54.9,63.6,57.8,52.3,95,80,59,30.12,29.91,7,1,15,0.00
2012-10-6,63.2,57.7,45.6,59.0,51.5,39.9,89,80,64,30.07,29.79,10,3,23,0.00
2012-10-7,52.0,45.8,40.8,44.3,41.4,37.1,96,85,69,30.17,30.03,7,1,17,0.06
2012-10-8,50.2,43.3,35.4,43.5,39.6,34.3,98,87,61,30.33,30.16,4,1,11,0.00
2012-10-9,57.5,49.5,43.1,50.2,45.8,41.8,97,87,68,30.27,30.09,3,0,10,0.00
2012-10-10,60.1,52.6,43.8,52.5,48.1,39.8,98,85,65,30.09,29.84,12,3,27,0.07
2012-10-11,57.2,47.6,40.6,40.6,35.9,33.0,88,65,45,30.27,30.05,10,4,24,0.00
2012-10-12,53.9,44.4,36.2,40.8,34.0,26.8,88,68,42,30.49,30.12,11,3,24,0.00
2012-10-13,53.7,41.6,27.8,35.6,30.1,24.5,90,66,42,30.56,30.26,5,2,23,0.00
2012-10-14,67.7,57.7,48.4,53.9,47.4,35.6,76,69,59,30.26,29.88,7,3,19,0.00
2012-10-15,66.2,60.5,51.5,59.6,53.1,43.2,88,77,58,29.87,29.67,9,4,22,0.01
2012-10-16,56.7,50.1,41.9,43.9,40.6,37.8,86,70,53,29.95,29.76,9,4,21,0.00
2012-10-17,64.8,48.9,34.9,45.7,41.3,33.5,98,77,47,30.03,29.93,5,1,12,0.00
2012-10-18,65.8,56.9,49.8,55.7,49.7,45.4,96,78,55,29.97,29.83,12,5,28,0.35
2012-10-19,64.3,58.1,55.1,63.2,57.4,54.5,99,97,93,29.87,29.63,7,1,16,0.52
2012-10-20,58.1,51.4,45.7,54.8,45.8,40.6,98,83,56,29.89,29.65,10,4,22,0.00
2012-10-21,61.1,51.2,43.8,46.9,42.9,40.6,90,74,53,30.11,29.89,9,5,21,0.00
2012-10-22,66.7,54.1,42.6,47.2,43.1,38.7,88,68,44,30.19,30.09,7,2,16,0.00
2012-10-23,66.2,56.3,48.6,60.2,52.2,43.9,98,87,73,30.16,30.03,4,0,8,0.08
2012-10-24,76.5,64.7,54.9,61.7,57.2,53.9,99,79,52,30.14,30.04,5,1,14,0.00
2012-10-25,66.1,59.7,56.9,58.8,56.5,55.1,95,89,77,30.21,30.12,5,2,12,0.00
2012-10-26,62.6,60.3,58.6,57.4,56.2,55.4,92,87,80,30.20,30.09,5,2,14,0.00
2012-10-27,62.4,58.9,55.0,56.9,55.1,52.2,92,87,78,30.09,29.92,5,1,14,0.00
2012-10-28,55.7,52.5,47.9,52.7,49.7,44.9,97,91,69,29.92,29.72,10,4,20,0.19
2012-10-29,55.7,48.8,47.5,55.0,46.9,-99.9,99,95,91,29.72,28.63,17,10,38,2.34
2012-10-30,52.4,37.7,37.8,50.7,33.0,-99.9,97,92,94,29.45,28.64,14,4,38,0.44
2012-10-31,41.6,39.1,36.7,40.5,38.1,35.9,97,96,94,29.61,29.45,5,2,14,0.10
2012-11-1,46.2,42.1,39.5,41.4,39.4,37.4,95,90,82,29.69,29.60,10,5,21,0.04
2012-11-2,45.5,41.0,37.4,39.2,35.9,32.7,92,82,71,29.88,29.69,11,6,23,0.02
2012-11-3,43.7,39.9,37.3,34.4,32.1,29.7,85,74,63,30.08,29.88,12,6,24,0.00
2012-11-4,39.8,37.3,34.9,31.4,30.1,29.0,84,75,67,30.10,30.05,10,5,20,0.00
2012-11-5,38.1,35.2,32.8,29.3,27.2,23.9,80,73,66,30.23,30.07,9,5,23,0.00
2012-11-6,42.0,33.7,25.9,26.4,23.9,20.8,83,68,48,30.26,30.10,5,1,12,0.00
2012-11-7,42.4,34.7,28.1,29.1,24.2,21.6,82,66,49,30.11,29.96,8,4,16,0.00
2012-11-8,46.9,38.3,32.9,27.7,24.0,20.2,73,57,38,30.09,29.94,14,8,28,0.00
2012-11-9,50.4,41.0,32.7,36.1,31.7,22.9,83,70,56,30.25,30.09,9,3,20,0.00
2012-11-10,50.2,43.9,34.9,42.4,37.7,31.3,93,79,67,30.40,30.24,3,1,11,0.00
2012-11-11,69.1,56.1,45.5,45.5,42.1,38.7,79,61,36,30.47,30.36,9,2,23,0.00
2012-11-12,65.7,59.3,47.7,57.1,51.5,43.9,94,76,64,30.40,30.08,15,7,33,0.38
2012-11-13,47.7,39.6,35.0,46.0,33.7,26.6,97,80,59,30.52,30.20,11,5,25,0.57
2012-11-14,44.6,37.4,31.6,28.3,26.3,24.5,76,64,52,30.60,30.48,8,3,18,0.00
2012-11-15,44.0,34.7,27.9,31.6,27.6,23.4,87,76,58,30.50,30.35,3,0,6,0.00
2012-11-16,48.1,36.3,28.6,34.1,28.9,25.9,94,76,48,30.53,30.35,7,1,14,0.00
2012-11-17,50.5,38.7,29.3,36.6,31.6,26.9,92,76,54,30.66,30.52,4,1,10,0.00
2012-11-18,49.6,38.1,28.8,35.7,31.9,26.9,94,79,54,30.69,30.57,5,1,10,0.00
2012-11-19,49.6,37.9,28.0,36.8,31.8,26.5,95,80,56,30.58,30.28,3,0,7,0.00
2012-11-20,49.6,38.9,29.7,35.0,30.9,27.4,92,74,51,30.28,30.14,2,0,4,0.00
2012-11-21,53.2,40.6,30.7,35.4,31.6,27.9,93,72,46,30.27,30.18,3,0,7,0.00
2012-11-22,56.8,41.3,28.4,38.4,32.2,26.3,94,72,42,30.31,30.13,3,0,8,0.00
2012-11-23,60.8,46.7,38.2,42.7,33.9,25.4,90,62,43,30.14,29.76,18,3,33,0.01
2012-11-24,38.9,34.5,31.8,27.9,25.1,22.8,80,68,54,29.97,29.82,14,9,30,0.00
2012-11-25,36.6,32.4,29.4,24.4,23.1,21.9,76,68,57,30.01,29.92,11,5,22,0.00
2012-11-26,44.3,37.2,31.2,28.6,25.6,23.1,75,63,49,30.27,29.99,9,4,17,0.00
2012-11-27,34.3,32.3,30.0,33.1,30.1,24.3,97,92,69,30.31,30.25,3,0,5,0.12
2012-11-28,37.1,32.2,26.9,30.7,25.3,22.5,97,76,62,30.35,30.24,9,3,19,0.05
2012-11-29,42.2,35.0,29.9,29.0,25.6,22.6,78,69,56,30.43,30.32,9,4,21,0.04
2012-11-30,44.5,36.7,29.3,33.3,27.8,23.4,85,70,52,30.42,30.34,6,1,13,0.00
2012-12-1,40.6,38.5,36.2,38.3,36.3,32.9,96,92,85,30.49,30.40,6,2,12,0.00
2012-12-2,50.6,44.2,38.9,45.4,41.7,37.8,99,91,78,30.43,30.11,6,2,17,0.08
2012-12-3,61.4,52.9,45.1,53.8,49.8,44.2,98,90,75,30.26,30.14,5,0,10,0.00
2012-12-4,66.8,59.6,53.4,56.5,54.2,52.1,97,83,67,30.22,29.92,8,3,20,0.01
2012-12-5,60.1,42.1,29.6,55.2,35.1,20.8,96,76,61,30.33,29.93,15,6,28,0.18
2012-12-6,39.6,31.0,24.0,25.3,22.3,18.8,82,70,55,30.41,30.26,7,2,14,0.00
2012-12-7,37.3,35.1,32.3,36.4,32.5,23.7,97,90,70,30.26,30.03,7,1,16,0.33
2012-12-8,48.4,42.3,37.1,46.7,41.5,36.3,99,97,93,30.07,29.90,4,0,10,0.07
2012-12-9,44.7,39.2,36.8,44.2,38.1,34.1,98,96,90,30.27,29.98,7,2,14,0.11
2012-12-10,51.4,47.2,41.3,51.2,46.6,40.6,99,98,95,29.98,29.58,12,3,25,0.31
2012-12-11,44.2,38.0,32.3,40.6,32.7,24.4,98,82,65,30.23,29.72,11,4,22,0.08
2012-12-12,40.9,33.5,29.7,28.5,25.6,24.0,84,73,56,30.49,30.23,5,1,12,0.00
2012-12-13,41.9,31.9,23.2,29.7,24.7,21.2,95,76,52,30.52,30.36,2,0,5,0.00
2012-12-14,45.4,36.1,26.2,30.2,26.7,21.7,84,69,53,30.36,30.23,6,1,13,0.00
2012-12-15,45.2,36.5,27.7,36.1,30.5,25.4,93,79,65,30.35,30.15,8,1,19,0.00
2012-12-16,46.9,43.9,40.5,43.7,40.2,33.2,96,87,72,30.16,29.86,9,5,21,0.05
2012-12-17,47.2,43.1,41.4,44.3,41.9,40.6,98,96,89,29.89,29.57,7,2,15,0.36
2012-12-18,46.2,41.3,36.0,46.0,39.4,30.0,99,93,75,29.78,29.52,14,5,26,0.15
2012-12-19,42.4,37.7,34.3,35.1,32.3,30.2,92,81,71,30.19,29.78,10,4,21,0.00
2012-12-20,41.7,34.8,30.7,40.0,31.0,28.0,95,86,67,30.22,29.50,20,4,40,0.34
2012-12-21,46.7,44.1,41.7,45.2,42.5,40.1,95,94,93,29.50,29.22,24,21,51,0.30
2012-12-24,37.4,33.0,30.2,30.4,27.6,25.2,95,82,63,30.08,29.91,7,2,15,0.00
2012-12-25,37.3,31.6,25.0,35.0,29.0,21.3,97,90,80,30.31,29.92,8,3,14,0.13
2012-12-26,33.9,27.1,21.9,33.8,24.5,18.1,97,89,83,30.32,29.53,9,3,20,0.00
2012-12-27,33.8,29.5,27.4,33.5,26.7,24.1,99,89,82,29.99,29.49,12,7,26,0.00
2012-12-28,32.9,28.9,23.8,26.6,24.7,21.7,93,84,76,30.16,29.98,10,3,21,0.06
2012-12-29,29.1,26.9,24.2,27.8,25.1,22.3,96,93,84,30.07,29.61,12,2,24,0.00
2012-12-30,32.3,29.0,26.1,25.0,22.2,19.7,85,76,67,30.28,29.79,14,7,32,0.02
2012-12-31,36.6,30.0,22.9,30.8,22.6,18.4,85,74,63,30.27,29.95,10,5,24,0.06
2013-1-1,36.0,32.0,22.8,30.4,25.7,15.5,84,78,67,30.05,29.91,11,5,24,0.02